,,,PA_Meas_PMT16A,,PR_Meas_QMR101_102,,RH_Meas_QMH101,,SR_Meas_QMS101,,TA_Meas_QMH101,,GenWind,,GenWind,
date,time,status,PA,status,PR,status,RH,status,SR,status,TA,status,DirAvg,status,SpdAvg,
2010-08-19, 00:00:04,VALID,1010.78,VALID,0,VALID,101.323,VALID,0,VALID,24.415,VALID,261,VALID,0.66875,
2010-08-19, 00:01:04,VALID,1010.75,VALID,0,VALID,101.346,VALID,0,VALID,24.4132,VALID,224,VALID,0.387109,
2010-08-19, 00:02:04,VALID,1010.72,VALID,0,VALID,101.156,VALID,0,VALID,24.415,VALID,256,VALID,0.75,
2010-08-19, 00:03:04,VALID,1010.71,VALID,0,VALID,101.087,VALID,0,VALID,24.3937,VALID,257,VALID,0.0359375,
2010-08-19, 00:04:04,VALID,1010.71,VALID,0,VALID,101.095,VALID,0,VALID,24.3937,VALID,256,VALID,0.182031,
2010-08-19, 00:05:04,VALID,1010.65,VALID,0,VALID,100.98,VALID,0,VALID,24.415,VALID,251,VALID,0.917188,
2010-08-19, 00:06:04,VALID,1010.65,VALID,0,VALID,100.927,VALID,0.105969,VALID,24.3937,VALID,206,VALID,0.373047,
2010-08-19, 00:07:04,VALID,1010.65,VALID,0,VALID,100.851,VALID,0,VALID,24.3937,VALID,233,VALID,1.19961,
2010-08-19, 00:08:04,VALID,1010.64,VALID,0,VALID,100.851,VALID,0,VALID,24.415,VALID,212,VALID,0.934375,
2010-08-19, 00:09:04,VALID,1010.63,VALID,0,VALID,100.889,VALID,0,VALID,24.3937,VALID,251,VALID,0.564844,
2010-08-19, 00:10:04,VALID,1010.67,VALID,0,VALID,101.056,VALID,0.105969,VALID,24.4132,VALID,239,VALID,0.485938,
2010-08-19, 00:11:04,VALID,1010.67,VALID,0,VALID,101.011,VALID,0.105969,VALID,24.4132,VALID,217,VALID,0.887891,
2010-08-19, 00:12:04,VALID,1010.67,VALID,0,VALID,101.11,VALID,0.105969,VALID,24.4132,VALID,217,VALID,0.280859,
2010-08-19, 00:13:04,VALID,1010.69,VALID,0,VALID,101.178,VALID,0,VALID,24.3937,VALID,217,VALID,0.0257812,
2010-08-19, 00:14:04,VALID,1010.69,VALID,0,VALID,101.301,VALID,0,VALID,24.415,VALID,282,VALID,0.254687,
2010-08-19, 00:15:04,VALID,1010.7,VALID,0,VALID,101.4,VALID,0,VALID,24.3956,VALID,260,VALID,0.0582031,
2010-08-19, 00:16:04,VALID,1010.72,VALID,0,VALID,101.339,VALID,0.105969,VALID,24.3547,VALID,271,VALID,0.0121094,
2010-08-19, 00:17:04,VALID,1010.72,VALID,0,VALID,101.484,VALID,0.105969,VALID,24.3761,VALID,271,VALID,0,
2010-08-19, 00:18:04,VALID,1010.67,VALID,0,VALID,101.545,VALID,0,VALID,24.3547,VALID,248,VALID,0.405859,
2010-08-19, 00:19:04,VALID,1010.66,VALID,0,VALID,101.537,VALID,0.105969,VALID,24.3547,VALID,282,VALID,0.459375,
2010-08-19, 00:20:04,VALID,1010.61,VALID,0,VALID,101.636,VALID,0.105969,VALID,24.3547,VALID,296,VALID,0.565625,
2010-08-19, 00:21:04,VALID,1010.54,VALID,0,VALID,101.697,VALID,0,VALID,24.3761,VALID,310,VALID,0.428516,
2010-08-19, 00:22:04,VALID,1010.52,VALID,0,VALID,101.773,VALID,0,VALID,24.3566,VALID,235,VALID,0.524609,
2010-08-19, 00:23:04,VALID,1010.44,VALID,0,VALID,101.796,VALID,0,VALID,24.3352,VALID,265,VALID,0.310156,
2010-08-19, 00:24:04,VALID,1010.41,VALID,0,VALID,101.842,VALID,0,VALID,24.3352,VALID,242,VALID,0.771484,
2010-08-19, 00:25:04,VALID,1010.37,VALID,0,VALID,101.834,VALID,0,VALID,24.3371,VALID,220,VALID,0.454688,
2010-08-19, 00:26:04,VALID,1010.34,VALID,0,VALID,101.933,VALID,0.105969,VALID,24.2963,VALID,296,VALID,0.366797,
2010-08-19, 00:27:04,VALID,1010.31,VALID,0,VALID,101.972,VALID,0,VALID,24.3176,VALID,259,VALID,1.0707,
2010-08-19, 00:28:04,VALID,1010.29,VALID,0,VALID,102.017,VALID,0,VALID,24.2963,VALID,257,VALID,0.432031,
2010-08-19, 00:29:04,VALID,1010.22,VALID,0,VALID,102.002,VALID,0,VALID,24.2981,VALID,219,VALID,0.816016,
2010-08-19, 00:30:04,VALID,1010.24,VALID,0,VALID,102.063,VALID,0,VALID,24.2981,VALID,261,VALID,1.2793,
2010-08-19, 00:31:04,VALID,1010.23,VALID,0,VALID,102.078,VALID,0,VALID,24.2768,VALID,238,VALID,0.530469,
2010-08-19, 00:32:04,VALID,1010.23,VALID,0,VALID,102.147,VALID,0,VALID,24.2768,VALID,268,VALID,0.742969,
2010-08-19, 00:33:04,VALID,1010.21,VALID,0.5,VALID,102.2,VALID,0,VALID,24.2573,VALID,252,VALID,1.08906,
2010-08-19, 00:34:04,VALID,1010.2,VALID,0,VALID,102.216,VALID,0.105969,VALID,24.2768,VALID,231,VALID,0.671094,
2010-08-19, 00:35:04,VALID,1010.17,VALID,0,VALID,102.223,VALID,0.105969,VALID,24.2573,VALID,221,VALID,1.12461,
2010-08-19, 00:36:04,VALID,1010.13,VALID,0,VALID,102.284,VALID,0,VALID,24.2981,VALID,308,VALID,0.446484,
2010-08-19, 00:37:04,VALID,1010.12,VALID,0,VALID,102.338,VALID,0.105969,VALID,24.2786,VALID,247,VALID,0.901172,
2010-08-19, 00:38:04,VALID,1010.06,VALID,0,VALID,102.299,VALID,0,VALID,24.2378,VALID,247,VALID,2.05586,
2010-08-19, 00:39:04,VALID,1010.05,VALID,0,VALID,102.345,VALID,0,VALID,24.2591,VALID,209,VALID,0.9125,
2010-08-19, 00:40:04,VALID,1010.05,VALID,0,VALID,102.399,VALID,0,VALID,24.2378,VALID,279,VALID,0.407422,
2010-08-19, 00:41:04,VALID,1009.97,VALID,0,VALID,102.414,VALID,0,VALID,24.2396,VALID,252,VALID,1.54023,
2010-08-19, 00:42:04,VALID,1009.98,VALID,0.5,VALID,102.353,VALID,0,VALID,24.2396,VALID,305,VALID,0.817578,
2010-08-19, 00:43:04,VALID,1009.96,VALID,0,VALID,102.315,VALID,0,VALID,24.1988,VALID,275,VALID,1.54453,
2010-08-19, 00:44:04,VALID,1009.94,VALID,0,VALID,102.383,VALID,0,VALID,24.2396,VALID,300,VALID,0.740625,
2010-08-19, 00:45:04,VALID,1009.95,VALID,0,VALID,102.368,VALID,0.105969,VALID,24.2183,VALID,292,VALID,0.678516,
2010-08-19, 00:46:04,VALID,1009.98,VALID,0,VALID,102.444,VALID,0,VALID,24.2007,VALID,222,VALID,0.160156,
2010-08-19, 00:47:04,VALID,1009.97,VALID,0,VALID,102.467,VALID,0,VALID,24.1793,VALID,245,VALID,1.42695,
2010-08-19, 00:48:04,VALID,1009.99,VALID,0,VALID,102.421,VALID,0,VALID,24.1812,VALID,225,VALID,0.86875,
2010-08-19, 00:49:04,VALID,1009.99,VALID,0,VALID,102.421,VALID,0,VALID,24.1617,VALID,219,VALID,1.49375,
2010-08-19, 00:50:04,VALID,1009.99,VALID,0,VALID,102.391,VALID,0.105969,VALID,24.1404,VALID,222,VALID,0.652344,
2010-08-19, 00:51:04,VALID,1010.03,VALID,0,VALID,102.391,VALID,0,VALID,24.1209,VALID,215,VALID,1.47109,
2010-08-19, 00:52:04,VALID,1010,VALID,0,VALID,102.345,VALID,0,VALID,24.1422,VALID,213,VALID,1.62109,
2010-08-19, 00:53:04,VALID,1009.98,VALID,0,VALID,102.231,VALID,0,VALID,24.1404,VALID,228,VALID,0.775781,
2010-08-19, 00:54:04,VALID,1009.99,VALID,0,VALID,102.193,VALID,0.105969,VALID,24.1209,VALID,205,VALID,2.01328,
2010-08-19, 00:55:04,VALID,1009.94,VALID,0,VALID,102.063,VALID,0.105969,VALID,24.1422,VALID,257,VALID,2.26406,
2010-08-19, 00:56:04,VALID,1009.91,VALID,0,VALID,101.933,VALID,0,VALID,24.1014,VALID,216,VALID,2.05977,
2010-08-19, 00:57:04,VALID,1009.9,VALID,0,VALID,101.88,VALID,0,VALID,24.1422,VALID,280,VALID,0.844531,
2010-08-19, 00:58:04,VALID,1009.9,VALID,0,VALID,101.911,VALID,0,VALID,24.1014,VALID,287,VALID,1.14141,
2010-08-19, 00:59:04,VALID,1009.9,VALID,0.5,VALID,102.002,VALID,0,VALID,24.1014,VALID,209,VALID,1.04844,
2010-08-19, 01:00:04,VALID,1009.87,VALID,0,VALID,101.842,VALID,0.105969,VALID,24.0624,VALID,242,VALID,1.25547,
2010-08-19, 01:01:04,VALID,1009.85,VALID,0,VALID,101.804,VALID,0.105969,VALID,24.0819,VALID,220,VALID,1.87109,
2010-08-19, 01:02:04,VALID,1009.85,VALID,0,VALID,101.705,VALID,0,VALID,24.0624,VALID,245,VALID,1.28242,
2010-08-19, 01:03:04,VALID,1009.85,VALID,0,VALID,101.689,VALID,0,VALID,24.0643,VALID,253,VALID,0.701172,
2010-08-19, 01:04:04,VALID,1009.87,VALID,0,VALID,101.712,VALID,0,VALID,24.0235,VALID,252,VALID,0.852344,
2010-08-19, 01:05:04,VALID,1009.84,VALID,0.5,VALID,101.743,VALID,0.105969,VALID,24.004,VALID,221,VALID,1.12344,
2010-08-19, 01:06:04,VALID,1009.8,VALID,0,VALID,101.857,VALID,0.105969,VALID,23.9845,VALID,295,VALID,0.954687,
2010-08-19, 01:07:04,VALID,1009.83,VALID,0,VALID,101.895,VALID,0,VALID,23.9668,VALID,263,VALID,1.50625,
2010-08-19, 01:08:04,VALID,1009.83,VALID,0,VALID,101.941,VALID,0,VALID,23.9668,VALID,229,VALID,1.49961,
2010-08-19, 01:09:04,VALID,1009.79,VALID,0,VALID,102.002,VALID,0,VALID,23.9065,VALID,229,VALID,0.291406,
2010-08-19, 01:10:04,VALID,1009.78,VALID,0,VALID,102.109,VALID,0,VALID,23.8871,VALID,268,VALID,0.674609,
2010-08-19, 01:11:04,VALID,1009.74,VALID,0,VALID,102.216,VALID,0.105969,VALID,23.8676,VALID,218,VALID,0.678125,
2010-08-19, 01:12:04,VALID,1009.73,VALID,0,VALID,102.284,VALID,0,VALID,23.8499,VALID,201,VALID,1.85391,
2010-08-19, 01:13:04,VALID,1009.75,VALID,0.5,VALID,102.223,VALID,0,VALID,23.8481,VALID,247,VALID,0.651172,
2010-08-19, 01:14:04,VALID,1009.78,VALID,0,VALID,102.177,VALID,0,VALID,23.8109,VALID,257,VALID,0.569922,
2010-08-19, 01:15:04,VALID,1009.76,VALID,0,VALID,102.101,VALID,0,VALID,23.7914,VALID,232,VALID,1.46875,
2010-08-19, 01:16:04,VALID,1009.77,VALID,0,VALID,102.055,VALID,0.105969,VALID,23.7701,VALID,219,VALID,1.60312,
2010-08-19, 01:17:04,VALID,1009.78,VALID,0,VALID,102.017,VALID,0.105969,VALID,23.7701,VALID,224,VALID,2.68281,
2010-08-19, 01:18:04,VALID,1009.76,VALID,0,VALID,102.017,VALID,0.105969,VALID,23.772,VALID,229,VALID,2.02734,
2010-08-19, 01:19:04,VALID,1009.79,VALID,0,VALID,101.933,VALID,0,VALID,23.7312,VALID,232,VALID,1.74414,
2010-08-19, 01:20:04,VALID,1009.79,VALID,0,VALID,101.956,VALID,0.105969,VALID,23.7312,VALID,284,VALID,0.418359,
2010-08-19, 01:21:04,VALID,1009.8,VALID,0,VALID,102.078,VALID,0,VALID,23.7117,VALID,239,VALID,0.317578,
2010-08-19, 01:22:04,VALID,1009.8,VALID,0,VALID,102.223,VALID,0.105969,VALID,23.6922,VALID,208,VALID,1.05625,
2010-08-19, 01:23:04,VALID,1009.84,VALID,0,VALID,102.292,VALID,0,VALID,23.6922,VALID,219,VALID,1.21055,
2010-08-19, 01:24:04,VALID,1009.84,VALID,0,VALID,102.277,VALID,0,VALID,23.694,VALID,223,VALID,0.926953,
2010-08-19, 01:25:04,VALID,1009.81,VALID,0.5,VALID,102.345,VALID,0,VALID,23.6727,VALID,231,VALID,1.14688,
2010-08-19, 01:26:04,VALID,1009.83,VALID,0,VALID,102.299,VALID,0,VALID,23.694,VALID,227,VALID,1.30234,
2010-08-19, 01:27:04,VALID,1009.85,VALID,0,VALID,102.17,VALID,0.105969,VALID,23.6745,VALID,224,VALID,1.55117,
2010-08-19, 01:28:04,VALID,1009.83,VALID,0,VALID,102.177,VALID,0,VALID,23.6745,VALID,208,VALID,0.821484,
2010-08-19, 01:29:04,VALID,1009.85,VALID,0,VALID,102.231,VALID,0.105969,VALID,23.6745,VALID,228,VALID,0.330078,
2010-08-19, 01:30:04,VALID,1009.83,VALID,0,VALID,102.33,VALID,0.105969,VALID,23.6532,VALID,229,VALID,0.962891,
2010-08-19, 01:31:04,VALID,1009.82,VALID,0,VALID,102.345,VALID,0.105969,VALID,23.6338,VALID,236,VALID,0.708594,
2010-08-19, 01:32:04,VALID,1009.84,VALID,0,VALID,102.391,VALID,0.105969,VALID,23.6338,VALID,236,VALID,0.576953,
2010-08-19, 01:33:04,VALID,1009.8,VALID,0,VALID,102.467,VALID,0.105969,VALID,23.6356,VALID,244,VALID,1.47773,
2010-08-19, 01:34:04,VALID,1009.79,VALID,0,VALID,102.498,VALID,0,VALID,23.6356,VALID,246,VALID,0.364844,
2010-08-19, 01:35:04,VALID,1009.76,VALID,0,VALID,102.551,VALID,0,VALID,23.6356,VALID,256,VALID,0.632813,
2010-08-19, 01:36:04,VALID,1009.75,VALID,0,VALID,102.582,VALID,0,VALID,23.655,VALID,286,VALID,0.153906,
2010-08-19, 01:37:04,VALID,1009.73,VALID,0,VALID,102.589,VALID,0,VALID,23.6143,VALID,234,VALID,0.736719,
2010-08-19, 01:38:04,VALID,1009.74,VALID,0,VALID,102.627,VALID,0,VALID,23.5948,VALID,246,VALID,0.713281,
2010-08-19, 01:39:04,VALID,1009.72,VALID,0,VALID,102.643,VALID,0,VALID,23.5948,VALID,266,VALID,0.25625,
2010-08-19, 01:40:04,VALID,1009.72,VALID,0,VALID,102.666,VALID,0.105969,VALID,23.6356,VALID,278,VALID,0.478516,
2010-08-19, 01:41:04,VALID,1009.7,VALID,0,VALID,102.681,VALID,0,VALID,23.5948,VALID,206,VALID,1.43398,
2010-08-19, 01:42:04,VALID,1009.71,VALID,0,VALID,102.666,VALID,0.105969,VALID,23.6356,VALID,288,VALID,0.646094,
2010-08-19, 01:43:04,VALID,1009.73,VALID,0,VALID,102.673,VALID,0,VALID,23.6356,VALID,262,VALID,0.700781,
2010-08-19, 01:44:04,VALID,1009.71,VALID,0,VALID,102.666,VALID,0.105969,VALID,23.6143,VALID,296,VALID,0.232031,
2010-08-19, 01:45:04,VALID,1009.67,VALID,0,VALID,102.666,VALID,0,VALID,23.6356,VALID,203,VALID,0.905859,
2010-08-19, 01:46:04,VALID,1009.69,VALID,0,VALID,102.704,VALID,0.105969,VALID,23.6356,VALID,258,VALID,0.949219,
2010-08-19, 01:47:04,VALID,1009.71,VALID,0,VALID,102.666,VALID,0,VALID,23.6356,VALID,269,VALID,0.0289063,
2010-08-19, 01:48:04,VALID,1009.67,VALID,0,VALID,102.711,VALID,0.105969,VALID,23.6143,VALID,269,VALID,0.00117188,
2010-08-19, 01:49:04,VALID,1009.66,VALID,0.5,VALID,102.734,VALID,0.105969,VALID,23.6161,VALID,226,VALID,0.813672,
2010-08-19, 01:50:04,VALID,1009.64,VALID,0,VALID,102.742,VALID,0,VALID,23.6161,VALID,241,VALID,0.30625,
2010-08-19, 01:51:04,VALID,1009.65,VALID,0,VALID,102.765,VALID,0,VALID,23.6161,VALID,287,VALID,0.402734,
2010-08-19, 01:52:04,VALID,1009.62,VALID,0,VALID,102.757,VALID,0,VALID,23.6179,VALID,227,VALID,0.455859,
2010-08-19, 01:53:04,VALID,1009.61,VALID,0,VALID,102.749,VALID,0,VALID,23.5966,VALID,228,VALID,0.527344,
2010-08-19, 01:54:04,VALID,1009.59,VALID,0,VALID,102.742,VALID,0,VALID,23.6179,VALID,211,VALID,0.574609,
2010-08-19, 01:55:04,VALID,1009.58,VALID,0,VALID,102.765,VALID,0,VALID,23.6373,VALID,267,VALID,1.23477,
2010-08-19, 01:56:04,VALID,1009.54,VALID,0,VALID,102.734,VALID,0,VALID,23.6161,VALID,220,VALID,0.582812,
2010-08-19, 01:57:04,VALID,1009.55,VALID,0,VALID,102.696,VALID,0,VALID,23.6568,VALID,235,VALID,0.336328,
2010-08-19, 01:58:04,VALID,1009.51,VALID,0,VALID,102.704,VALID,0,VALID,23.6161,VALID,221,VALID,0.647266,
2010-08-19, 01:59:04,VALID,1009.51,VALID,0,VALID,102.681,VALID,0,VALID,23.6356,VALID,255,VALID,0.264844,
2010-08-19, 02:00:04,VALID,1009.46,VALID,0,VALID,102.742,VALID,0,VALID,23.6356,VALID,260,VALID,0.417188,
2010-08-19, 02:01:04,VALID,1009.43,VALID,0,VALID,102.765,VALID,0,VALID,23.6373,VALID,277,VALID,0.574609,
2010-08-19, 02:02:04,VALID,1009.4,VALID,0,VALID,102.788,VALID,0,VALID,23.6161,VALID,246,VALID,0.619531,
2010-08-19, 02:03:04,VALID,1009.38,VALID,0,VALID,102.795,VALID,0,VALID,23.6373,VALID,213,VALID,0.425781,
2010-08-19, 02:04:04,VALID,1009.38,VALID,0,VALID,102.803,VALID,0,VALID,23.6161,VALID,275,VALID,0.468359,
2010-08-19, 02:05:04,VALID,1009.35,VALID,0,VALID,102.795,VALID,0,VALID,23.5948,VALID,224,VALID,0.984375,
2010-08-19, 02:06:04,VALID,1009.31,VALID,0,VALID,102.826,VALID,0.105969,VALID,23.6143,VALID,285,VALID,0.382813,
2010-08-19, 02:07:04,VALID,1009.33,VALID,0,VALID,102.833,VALID,0.105969,VALID,23.6143,VALID,234,VALID,0.678516,
2010-08-19, 02:08:04,VALID,1009.29,VALID,0,VALID,102.833,VALID,0.105969,VALID,23.6356,VALID,216,VALID,0.4,
2010-08-19, 02:09:04,VALID,1009.29,VALID,0,VALID,102.833,VALID,0.105969,VALID,23.6356,VALID,239,VALID,0.236719,
2010-08-19, 02:10:04,VALID,1009.3,VALID,0,VALID,102.841,VALID,0.105969,VALID,23.6356,VALID,262,VALID,0.003125,
2010-08-19, 02:11:04,VALID,1009.28,VALID,0,VALID,102.864,VALID,0.105969,VALID,23.655,VALID,231,VALID,0.0648438,
2010-08-19, 02:12:04,VALID,1009.27,VALID,0,VALID,102.887,VALID,0.105969,VALID,23.6143,VALID,236,VALID,0.117969,
2010-08-19, 02:13:04,VALID,1009.25,VALID,0,VALID,102.879,VALID,0.105969,VALID,23.6143,VALID,281,VALID,0.4125,
2010-08-19, 02:14:04,VALID,1009.25,VALID,0,VALID,102.887,VALID,0,VALID,23.6356,VALID,274,VALID,0.139062,
2010-08-19, 02:15:04,VALID,1009.21,VALID,0,VALID,102.917,VALID,0,VALID,23.6161,VALID,274,VALID,0.00429688,
2010-08-19, 02:16:04,VALID,1009.21,VALID,0,VALID,102.925,VALID,0.105969,VALID,23.5948,VALID,222,VALID,0.467969,
2010-08-19, 02:17:04,VALID,1009.2,VALID,0,VALID,102.932,VALID,0,VALID,23.5948,VALID,267,VALID,0.229687,
2010-08-19, 02:18:04,VALID,1009.16,VALID,0,VALID,102.932,VALID,0,VALID,23.5948,VALID,269,VALID,0.267188,
2010-08-19, 02:19:04,VALID,1009.13,VALID,0,VALID,102.955,VALID,0.105969,VALID,23.5948,VALID,272,VALID,0.376953,
2010-08-19, 02:20:04,VALID,1009.14,VALID,0,VALID,102.948,VALID,0,VALID,23.5966,VALID,215,VALID,0,
2010-08-19, 02:21:04,VALID,1009.11,VALID,0,VALID,102.948,VALID,0,VALID,23.5966,VALID,231,VALID,0.320703,
2010-08-19, 02:22:04,VALID,1009.12,VALID,0,VALID,102.948,VALID,0,VALID,23.5966,VALID,216,VALID,0.783594,
2010-08-19, 02:23:04,VALID,1009.1,VALID,0,VALID,102.948,VALID,0,VALID,23.6161,VALID,224,VALID,0.660156,
2010-08-19, 02:24:04,VALID,1009.12,VALID,0,VALID,102.925,VALID,0,VALID,23.6568,VALID,219,VALID,0.521094,
2010-08-19, 02:25:04,VALID,1009.1,VALID,0,VALID,102.91,VALID,0,VALID,23.6356,VALID,234,VALID,0.678906,
2010-08-19, 02:26:04,VALID,1009.09,VALID,0,VALID,102.925,VALID,0,VALID,23.655,VALID,211,VALID,0.388672,
2010-08-19, 02:27:04,VALID,1009.12,VALID,0,VALID,102.925,VALID,0,VALID,23.6763,VALID,209,VALID,0,
2010-08-19, 02:28:04,VALID,1009.12,VALID,0,VALID,102.963,VALID,0,VALID,23.655,VALID,281,VALID,0.0226563,
2010-08-19, 02:29:04,VALID,1009.08,VALID,0,VALID,102.963,VALID,0,VALID,23.655,VALID,286,VALID,0.0800781,
2010-08-19, 02:30:04,VALID,1009.12,VALID,0,VALID,102.948,VALID,0,VALID,23.6356,VALID,252,VALID,0.373437,
2010-08-19, 02:31:04,VALID,1009.11,VALID,0,VALID,102.948,VALID,0,VALID,23.6356,VALID,218,VALID,0.521875,
2010-08-19, 02:32:04,VALID,1009.14,VALID,0,VALID,102.948,VALID,0,VALID,23.655,VALID,242,VALID,0.458594,
2010-08-19, 02:33:04,VALID,1009.16,VALID,0,VALID,102.948,VALID,0,VALID,23.655,VALID,227,VALID,0.118359,
2010-08-19, 02:34:04,VALID,1009.2,VALID,0,VALID,102.925,VALID,0,VALID,23.655,VALID,197,VALID,0.532031,
2010-08-19, 02:35:04,VALID,1009.25,VALID,0,VALID,102.948,VALID,0.105969,VALID,23.6745,VALID,187,VALID,0.771094,
2010-08-19, 02:36:04,VALID,1009.25,VALID,0,VALID,102.925,VALID,0,VALID,23.6532,VALID,166,VALID,0.862891,
2010-08-19, 02:37:04,VALID,1009.31,VALID,0,VALID,102.91,VALID,0.105969,VALID,23.6532,VALID,183,VALID,1.04609,
2010-08-19, 02:38:04,VALID,1009.3,VALID,0,VALID,102.902,VALID,0.105969,VALID,23.6727,VALID,184,VALID,0.360938,
2010-08-19, 02:39:04,VALID,1009.33,VALID,0,VALID,102.91,VALID,0.105969,VALID,23.6727,VALID,138,VALID,0.571875,
2010-08-19, 02:40:04,VALID,1009.35,VALID,0,VALID,102.879,VALID,0.105969,VALID,23.6922,VALID,138,VALID,0.383984,
2010-08-19, 02:41:04,VALID,1009.35,VALID,0,VALID,102.864,VALID,0,VALID,23.7117,VALID,138,VALID,0.36875,
2010-08-19, 02:42:04,VALID,1009.35,VALID,0,VALID,102.894,VALID,0,VALID,23.7135,VALID,174,VALID,0.542188,
2010-08-19, 02:43:04,VALID,1009.33,VALID,0,VALID,102.864,VALID,0.105969,VALID,23.733,VALID,174,VALID,0.904297,
2010-08-19, 02:44:04,VALID,1009.33,VALID,0,VALID,102.871,VALID,0.105969,VALID,23.7117,VALID,173,VALID,0.758594,
2010-08-19, 02:45:04,VALID,1009.31,VALID,0,VALID,102.871,VALID,0.105969,VALID,23.7507,VALID,157,VALID,0.962109,
2010-08-19, 02:46:04,VALID,1009.28,VALID,0,VALID,102.894,VALID,0.105969,VALID,23.7507,VALID,158,VALID,1.02422,
2010-08-19, 02:47:04,VALID,1009.29,VALID,0,VALID,102.871,VALID,0.105969,VALID,23.7701,VALID,158,VALID,0.871875,
2010-08-19, 02:48:04,VALID,1009.26,VALID,0,VALID,102.849,VALID,0,VALID,23.7701,VALID,152,VALID,0.413281,
2010-08-19, 02:49:04,VALID,1009.29,VALID,0,VALID,102.879,VALID,0.105969,VALID,23.7896,VALID,182,VALID,0.616797,
2010-08-19, 02:50:04,VALID,1009.28,VALID,0,VALID,102.887,VALID,0,VALID,23.7932,VALID,181,VALID,0.480078,
2010-08-19, 02:51:04,VALID,1009.33,VALID,0,VALID,102.894,VALID,0,VALID,23.772,VALID,184,VALID,0.576563,
2010-08-19, 02:52:04,VALID,1009.34,VALID,0,VALID,102.917,VALID,0,VALID,23.7738,VALID,183,VALID,0.510547,
2010-08-19, 02:53:04,VALID,1009.33,VALID,0,VALID,102.925,VALID,0,VALID,23.7932,VALID,182,VALID,0.366016,
2010-08-19, 02:54:04,VALID,1009.32,VALID,0,VALID,102.948,VALID,0,VALID,23.8127,VALID,182,VALID,0,
2010-08-19, 02:55:04,VALID,1009.3,VALID,0,VALID,102.955,VALID,0,VALID,23.8127,VALID,182,VALID,0.0078125,
2010-08-19, 02:56:04,VALID,1009.29,VALID,0,VALID,102.971,VALID,0,VALID,23.7914,VALID,182,VALID,0.322656,
2010-08-19, 02:57:04,VALID,1009.31,VALID,0,VALID,102.986,VALID,0,VALID,23.8127,VALID,182,VALID,0,
2010-08-19, 02:58:04,VALID,1009.31,VALID,0,VALID,103.001,VALID,0,VALID,23.8127,VALID,203,VALID,0.458984,
2010-08-19, 02:59:04,VALID,1009.27,VALID,0,VALID,103.016,VALID,0,VALID,23.8109,VALID,206,VALID,0.476563,
2010-08-19, 03:00:04,VALID,1009.28,VALID,0,VALID,103.016,VALID,0,VALID,23.8322,VALID,210,VALID,0.51875,
2010-08-19, 03:01:04,VALID,1009.26,VALID,0,VALID,103.032,VALID,0,VALID,23.7914,VALID,214,VALID,0.710938,
2010-08-19, 03:02:04,VALID,1009.24,VALID,0,VALID,103.001,VALID,0,VALID,23.8127,VALID,207,VALID,0.525,
2010-08-19, 03:03:04,VALID,1009.28,VALID,0,VALID,103.009,VALID,0,VALID,23.8109,VALID,231,VALID,0.183594,
2010-08-19, 03:04:04,VALID,1009.24,VALID,0,VALID,103.009,VALID,0,VALID,23.8109,VALID,237,VALID,0.860547,
2010-08-19, 03:05:04,VALID,1009.24,VALID,0,VALID,103.001,VALID,0,VALID,23.8286,VALID,289,VALID,0.326953,
2010-08-19, 03:06:04,VALID,1009.21,VALID,0,VALID,103.016,VALID,0,VALID,23.8481,VALID,223,VALID,0.204297,
2010-08-19, 03:07:04,VALID,1009.21,VALID,0,VALID,103.009,VALID,0,VALID,23.8694,VALID,223,VALID,0.114844,
2010-08-19, 03:08:04,VALID,1009.21,VALID,0,VALID,103.001,VALID,0,VALID,23.8694,VALID,222,VALID,0.296484,
2010-08-19, 03:09:04,VALID,1009.18,VALID,0,VALID,103.024,VALID,0,VALID,23.8889,VALID,222,VALID,0.0140625,
2010-08-19, 03:10:04,VALID,1009.2,VALID,0,VALID,103.039,VALID,0,VALID,23.8889,VALID,221,VALID,1.33633,
2010-08-19, 03:11:04,VALID,1009.2,VALID,0,VALID,103.009,VALID,0,VALID,23.8889,VALID,247,VALID,1.14102,
2010-08-19, 03:12:04,VALID,1009.17,VALID,0,VALID,103.009,VALID,0,VALID,23.8889,VALID,233,VALID,1.06875,
2010-08-19, 03:13:04,VALID,1009.18,VALID,0,VALID,102.955,VALID,0,VALID,23.9065,VALID,284,VALID,0.358984,
2010-08-19, 03:14:04,VALID,1009.16,VALID,0,VALID,102.986,VALID,0,VALID,23.9065,VALID,221,VALID,1.4457,
2010-08-19, 03:15:04,VALID,1009.19,VALID,0,VALID,102.971,VALID,0,VALID,23.9065,VALID,251,VALID,1.13906,
2010-08-19, 03:16:04,VALID,1009.19,VALID,0,VALID,102.94,VALID,0,VALID,23.926,VALID,225,VALID,0.519531,
2010-08-19, 03:17:04,VALID,1009.24,VALID,0,VALID,102.971,VALID,0,VALID,23.9473,VALID,256,VALID,0.0425781,
2010-08-19, 03:18:04,VALID,1009.25,VALID,0,VALID,102.986,VALID,0,VALID,23.926,VALID,274,VALID,0.404297,
2010-08-19, 03:19:04,VALID,1009.3,VALID,0,VALID,102.971,VALID,0,VALID,23.9473,VALID,273,VALID,0.221094,
2010-08-19, 03:20:04,VALID,1009.28,VALID,0,VALID,102.971,VALID,0,VALID,23.9065,VALID,262,VALID,0.0917969,
2010-08-19, 03:21:04,VALID,1009.33,VALID,0,VALID,102.986,VALID,0,VALID,23.9473,VALID,245,VALID,0.524609,
2010-08-19, 03:22:04,VALID,1009.32,VALID,0,VALID,103.016,VALID,0,VALID,23.9278,VALID,210,VALID,1.59141,
2010-08-19, 03:23:04,VALID,1009.32,VALID,0,VALID,102.978,VALID,0,VALID,23.926,VALID,229,VALID,0.298438,
2010-08-19, 03:24:04,VALID,1009.32,VALID,0,VALID,102.978,VALID,0,VALID,23.9473,VALID,259,VALID,0.687109,
2010-08-19, 03:25:04,VALID,1009.33,VALID,0,VALID,102.948,VALID,0,VALID,23.9473,VALID,213,VALID,0.570313,
2010-08-19, 03:26:04,VALID,1009.33,VALID,0,VALID,102.948,VALID,0,VALID,23.9278,VALID,238,VALID,0.928906,
2010-08-19, 03:27:04,VALID,1009.33,VALID,0,VALID,102.902,VALID,0,VALID,23.926,VALID,226,VALID,1.14063,
2010-08-19, 03:28:04,VALID,1009.34,VALID,0,VALID,102.856,VALID,0,VALID,23.9278,VALID,214,VALID,0.908594,
2010-08-19, 03:29:04,VALID,1009.33,VALID,0,VALID,102.871,VALID,0,VALID,23.9473,VALID,221,VALID,0.778125,
2010-08-19, 03:30:04,VALID,1009.33,VALID,0,VALID,102.849,VALID,0,VALID,23.9473,VALID,212,VALID,0.792188,
2010-08-19, 03:31:04,VALID,1009.36,VALID,0,VALID,102.864,VALID,0,VALID,23.9473,VALID,210,VALID,0.742969,
2010-08-19, 03:32:04,VALID,1009.35,VALID,0,VALID,102.871,VALID,0,VALID,23.9278,VALID,222,VALID,0.993359,
2010-08-19, 03:33:04,VALID,1009.36,VALID,0,VALID,102.833,VALID,0,VALID,23.9473,VALID,202,VALID,0.682031,
2010-08-19, 03:34:04,VALID,1009.38,VALID,0,VALID,102.841,VALID,0,VALID,23.9278,VALID,207,VALID,0.571094,
2010-08-19, 03:35:04,VALID,1009.39,VALID,0,VALID,102.871,VALID,0,VALID,23.9278,VALID,202,VALID,0.921875,
2010-08-19, 03:36:04,VALID,1009.36,VALID,0,VALID,102.879,VALID,0,VALID,23.9278,VALID,200,VALID,1.8418,
2010-08-19, 03:37:04,VALID,1009.37,VALID,0,VALID,102.841,VALID,0,VALID,23.926,VALID,204,VALID,1.16133,
2010-08-19, 03:38:04,VALID,1009.4,VALID,0,VALID,102.818,VALID,0,VALID,23.9278,VALID,183,VALID,0.80625,
2010-08-19, 03:39:04,VALID,1009.41,VALID,0,VALID,102.818,VALID,0,VALID,23.9278,VALID,186,VALID,0.916016,
2010-08-19, 03:40:04,VALID,1009.42,VALID,0,VALID,102.81,VALID,0,VALID,23.9084,VALID,195,VALID,0.9875,
2010-08-19, 03:41:04,VALID,1009.45,VALID,0,VALID,102.81,VALID,0,VALID,23.9084,VALID,196,VALID,0.889063,